sat.trackr.live / text

‹ back to catalog

STARLINK-2298

NORAD 48022 · 2021-024AX

PAYLOAD ACTIVE UNKNOWN

§ Identity

Operator
Country
US
Launch date
2021-03-24
Launch site
AFETR
Launch vehicle
Mass (kg)
RCS (m²)

Purposes: comms

External: N2YO · Heavens-Above · Gunter

§ Orbital elements

Epoch: 2026-05-24T19:17:43.792512Z

Period
92.99 min
Inclination
53.1244°
Eccentricity
0.0002556
Mean motion
15.48528040 rev/d
Perigee alt
419.3 km
Apogee alt
422.8 km
Semi-major
6,799.2 km
B*
1.0786e-3
RAAN
332.1555°
Arg perigee
210.7828°
Mean anomaly
149.3031°
Rev number
28,636

§ Raw data

STARLINK-22981 48022U 21024AX  26144.80397908  .00058363  00000+0  10786-2 0  99942 48022  53.1244 332.1555 0002556 210.7828 149.3031 15.48528040286360

JSON: /api/v1/satellites/48022 · /tle

For live sub-satellite position, see the globe view (requires WebGL).

§ Visibility from observer

Set your observer location to see the next 7 days of passes ≥ 10°. The values pass through the URL so the page stays shareable.

No JS? Fill the form by hand. The geolocation button needs JavaScript.